SCP
-0 -0 -0 0 0 0 0 0 0 0 0 0 0 0 0 0 0 0 0 -0 -0 -0 -0 -0 -0 -0 -0 -0 -0 -0 -0 -0 -0 0 0 0 0 0 0 0 0 0 0 0 0 0 0 0 0
-0 -0 0 0 0 0 0 0 0 0 0 0 0 0 0 0 0 0 0 -0 -0 -0 -0 -0 -0 -0 -0 -0 -0 -0 -0 -0 -0 -0 -0 -0 0 0 0 0 0 0 0 0 0 0 0 0 0
-0 -0 0 0 0 0 -0 0 0 -0 0 0 0 0 0 0 0 0 0 -0 -0 -0 -0 -0 -0 -0 -0 -0 -0 -0 -0 -0 -0 -0 -0 0 0 0 0 0 0 0 0 0 0 0 0 0 0
0 0 0 -0 0 0 0 -0 0 0 0 0 0 0 0 0 0 0 0 -0 -0 -0 -0 -0 -0 -0 -0 -0 -0 -0 -0 -0 -0 0 0 0 0 0 0 0 0 0 0 0 0 0 0 0 0
0 0 0 0 0 0 0 0 0 0 0 0 0 0 0 0 0 0 0 -0 -0 -0 -0 -0 0 0 0 -0 -0 -0 -0 0 0 0 0 0 0 0 0 0 0 0 0 0 0 0 0 0 0
0 0 0 0 0 0 0 0 0 0 0 0 0 0 0 0 0 0 0 -0 -0 -0 -0 -0 -0 0 0 0 0 0 0 0 0 0 0 0 0 0 0 0 0 0 0 0 0 0 0 0 0
0 0 0 0 0 0 0 0 0 0 0 0 0 0 0 0 0 0 0 0 0 -0 -0 -0 -0 -0 0 0 0 0 0 0 0 0 0 0 0 0 0 0 0 0 0 0 0 0 0 0 0
0 0 0 0 0 0 0 0 0 0 0 0 0 0 0 0 0 0 0 0 0 0 -0 -0 -0 -0 -0 -0 0 0 0 0 0 0 0 0 0 0 0 0 0 0 0 0 0 0 0 0 0
0 0 0 0 0 0 0 0 0 0 0 0 0 0 0 0 0 0 0 0 0 0 0 0 0 -0 -0 -0 0 0 0 0 0 0 0 0 0 0 0 0 0 0 0 0 0 0 0 0 0
0 0 0 0 0 0 0 0 0 0 0 0 0 0 0 0 0 0 0 0 0 0 0 0 0 0 0 0 0 0 0 0 0 0 0 0 0 0 0 0 0 0 0 0 0 0 0 0 0
0 0 0 0 0 0 0 0 0 0 0 0 0 0 0 0 0 0 0 0 0 0 0 0 0 0 0 0 0 0 0 0 0 0 0 0 0 0 0 0 0 0 0 0 0 0 0 0 0
0 0 0 0 0 0 0 0 0 0 -0 0 0 0 0 0 0 0 0 0 0 0 0 0 0 0 0 0 0 0 0 0 0 0 0 0 0 0 0 0 0 0 0 0 0 0 0 0 0
0 0 0 0 0 0 0 0 0 -0 0 0 0 0 0 0 0 0 0 0 0 0 0 0 0 0 0 0 0 0 0 0 0 0 0 0 0 0 0 0 0 0 0 0 0 0 0 0 0
0 0 0 0 0 0 0 0 0 0 0 0 0 0 0 0 0 0 0 0 0 0 0 0 0 0 0 0 0 0 0 0 0 0 0 0 0 0 0 0 0 0 0 0 0 0 0 0 0
0 0 0 0 0 0 0 0 0 0 0 0 0 0 0 0 0 0 0 0 0 0 0 0 0 0 0 0 0 0 0 0 0 0 0 0 0 0 0 0 0 0 0 0 0 0 0 0 0
0 0 0 0 0 0 0 0 0 0 0 0 0 0 0 0 0 0 0 0 0 0 0 0 0 0 0 0 0 0 0 0 0 0 0 0 0 0 0 0 0 0 0 0 0 0 0 0 0
0 0 0 0 0 0 0 0 0 0 0 0 -0 -0 0 0 0 0 0 0 0 0 0 0 0 0 0 0 0 0 0 0 0 0 0 0 0 0 0 0 0 0 0 0 0 0 0 0 0
0 0 0 0 0 0 0 0 0 0 0 0 0 0 0 0 0 0 0 0 0 0 0 0 0 0 0 0 0 0 0 0 0 0 0 0 0 0 0 0 0 0 0 0 0 0 0 0 0
0 0 0 0 0 0 0 0 0 0 0 0 0 0 0 0 0 0 0 0 0 0 0 0 0 0 0 0 0 0 0 0 0 0 0 0 0 0 0 0 0 0 0 0 0 0 0 0 0
0 0 0 0 0 0 0 0 0 0 0 0 0 0 0 0 0 0 0 0 0 0 0 0 0 0 0 0 0 0 0 0 0 0 0 0 0 0 0 0 0 0 0 0 0 0 0 0 0
0 0 0 0 0 0 0 0 0 0 0 0 0 0 0 0 0 0 0 0 0 0 0 -0 0 0 0 0 0 0 0 0 0 0 0 0 0 0 0 0 0 0 0 0 0 0 0 0 0
0 0 0 0 0 0 0 0 0 -0 -0 0 0 0 0 0 0 0 0 0 0 0 -0 0 0 0 0 0 0 0 0 0 0 0 0 0 0 0 0 0 0 0 0 0 0 0 0 0 0
0 0 0 0 0 0 0 0 0 0 -0 0 0 0 0 0 0 0 0 0 0 0 0 0 0 0 0 0 0 0 0 0 0 0 0 0 0 0 0 0 0 0 0 0 0 0 0 0 0
0 0 0 0 0 0 0 0 0 0 0 0 0 0 -0 0 0 0 0 0 0 0 0 0 0 0 0 0 0 0 0 0 0 0 0 0 0 0 0 0 0 0 0 0 0 0 0 0 0
0 0 0 0 0 0 0 0 0 -0 0 0 0 -0 -0 0 0 0 0 0 0 0 0 0 0 0 0 0 0 0 0 0 0 0 0 0 0 0 0 0 0 0 0 0 0 0 0 0 0
0 0 0 0 0 0 0 0 0 0 0 0 0 0 0 0 0 0 0 0 -0 -0 -0 -0 -0 0 0 0 0 0 0 0 0 0 0 0 0 0 0 0 0 0 0 0 0 0 0 0 0
0 0 0 0 0 0 0 0 0 0 0 0 0 0 0 0 0 0 0 0 0 -0 -0 -0 -0 -0 -0 0 0 0 0 0 0 0 0 0 0 0 0 0 0 0 0 0 0 0 0 0 0
0 0 0 0 0 0 0 0 0 0 0 0 0 0 0 0 0 0 0 -0 -0 -0 -0 -0 -0 -0 -0 0 0 0 0 0 0 -0 0 0 0 0 0 0 0 0 0 0 0 0 0 0 0
0 0 0 0 0 0 0 0 0 0 0 0 0 0 0 0 0 0 0 0 0 0 0 0 0 0 0 0 0 0 0 0 0 0 0 0 0 0 0 0 0 0 0 0 0 0 0 0 0
0 0 0 0 0 0 0 0 0 0 0 0 0 0 0 0 0 0 0 0 0 0 0 0 0 0 0 -0 -0 0 0 0 0 0 0 0 0 0 0 0 0 0 0 0 0 0 0 0 0
Wind_Speed_500mb
11 8 8 6 8 6 6 3 4 7 4 1 6 6 9 13 8 10 4 9 16 41 47 48 43 40 41 39 36 33 31 28 26 24 23 22 21 21 19 17 16 16 18 10 7 7 5 3 1
9 5 5 2 7 8 4 0 5 3 2 4 9 9 11 14 17 20 14 13 19 37 46 49 49 44 41 38 36 36 34 31 29 29 28 31 29 24 20 17 20 22 23 14 11 12 10 8 7
4 1 5 4 4 6 6 2 4 4 6 9 6 9 8 6 10 7 10 13 24 35 46 48 48 48 45 41 38 37 33 29 28 25 25 26 21 19 17 19 22 24 25 20 18 17 18 17 15
3 2 4 8 14 17 12 13 15 18 5 11 9 12 11 20 10 13 8 14 25 33 42 44 46 46 47 45 42 38 35 32 34 32 28 23 22 21 21 23 25 26 24 23 21 19 16 16 15
6 1 6 7 12 11 16 19 15 11 4 6 7 5 9 19 19 24 18 13 24 29 37 41 43 44 44 45 43 41 40 39 40 36 27 25 24 22 21 23 22 22 21 20 19 17 15 12 10
3 1 6 9 8 11 16 15 10 12 6 4 8 13 11 15 12 14 21 19 25 30 35 38 42 43 43 44 45 41 44 46 46 32 27 27 24 21 21 21 21 20 19 17 14 11 8 6 5
4 5 7 11 13 10 4 1 6 7 6 11 6 9 11 18 12 14 15 22 27 35 39 40 43 46 46 46 46 44 46 49 50 38 30 28 25 24 24 23 21 18 15 13 12 10 9 8 7
7 5 5 8 6 9 4 4 6 11 9 9 11 10 13 15 23 23 22 24 30 37 40 44 46 49 52 51 48 50 50 50 48 40 34 30 28 28 27 25 23 21 19 18 16 13 12 11 10
9 8 11 9 10 5 8 9 10 12 18 15 23 36 35 46 40 35 31 32 36 41 44 47 50 52 55 54 52 50 49 49 48 43 39 34 34 32 31 29 26 25 24 22 19 16 13 11 10
12 8 11 10 13 10 11 12 16 13 29 35 35 46 44 41 45 44 42 43 44 46 47 50 52 55 58 59 56 54 54 53 50 49 46 42 39 37 34 31 28 26 24 21 18 15 13 12 10
12 15 17 18 29 18 18 19 14 23 32 39 34 32 29 42 47 51 51 51 51 47 53 51 54 56 60 62 62 63 62 59 58 54 51 46 44 43 42 40 37 34 30 27 23 21 17 14 13
12 29 29 14 14 9 15 16 19 34 70 58 52 49 46 52 54 53 52 51 49 52 52 57 58 62 63 64 67 68 68 67 65 62 59 55 53 52 50 46 42 39 36 33 29 26 22 19 16
19 25 26 33 27 28 31 52 35 59 69 68 56 55 53 49 51 51 54 52 49 54 53 58 60 64 67 70 70 73 75 73 70 68 66 63 60 58 55 50 47 45 41 37 33 30 25 21 16
7 20 32 27 32 30 25 61 12 44 38 49 41 51 47 48 42 47 52 49 51 48 46 52 61 68 71 74 76 78 78 77 77 75 73 70 67 65 63 59 56 53 48 44 39 33 28 24 19
11 23 33 34 29 19 21 26 35 59 31 43 52 44 41 45 56 68 56 52 45 45 46 51 56 64 75 79 80 83 83 83 84 81 79 78 75 71 68 67 64 60 55 50 45 40 34 29 24
12 8 22 9 11 9 21 40 42 33 22 34 45 53 59 71 66 58 69 72 69 71 73 69 68 68 74 81 86 91 91 88 89 88 85 84 82 79 76 74 70 67 62 57 53 47 41 36 30
16 27 34 31 17 7 25 25 30 19 25 63 66 70 73 67 71 52 49 55 55 61 64 67 69 75 76 80 89 95 97 97 96 94 93 91 88 86 83 79 76 73 70 66 60 53 48 41 35
28 19 19 22 10 16 24 37 40 65 61 72 76 80 64 53 57 44 40 37 36 39 43 48 52 62 70 80 90 99 102 105 104 104 100 95 94 91 88 84 83 81 79 73 66 61 56 48 43
31 33 43 41 36 26 45 42 37 53 67 72 77 62 46 38 34 32 35 31 23 21 30 36 44 46 58 70 85 96 106 107 108 109 105 102 99 98 94 91 90 88 86 80 73 69 63 57 51
35 43 44 42 34 14 35 49 49 46 63 67 63 46 39 34 29 31 44 40 35 27 24 29 34 42 51 58 68 79 84 95 99 105 110 108 107 103 100 97 96 94 91 86 81 79 73 68 62
37 34 39 43 28 26 26 29 7 18 29 34 30 30 22 20 32 42 48 50 50 42 24 29 31 32 37 45 53 61 76 76 78 91 103 107 108 109 103 101 101 98 96 95 91 87 82 77 69
43 30 34 30 13 19 11 20 23 28 30 9 27 25 25 36 43 44 49 57 58 57 45 30 24 25 30 32 42 53 58 69 76 81 84 93 103 109 106 105 105 102 100 99 95 91 88 84 79
18 9 11 8 14 12 12 13 8 5 23 10 18 24 37 40 38 44 49 54 59 60 58 55 47 36 24 19 26 37 45 50 48 61 74 77 79 92 107 108 109 109 106 104 100 96 92 89 85
1 10 12 4 9 16 19 17 5 5 4 4 23 37 34 38 41 46 49 59 55 49 51 52 49 44 38 34 27 26 34 41 52 59 67 71 70 69 87 109 112 112 110 108 104 99 96 93 91
5 8 10 11 10 16 8 7 14 25 8 15 23 26 42 47 47 57 66 61 58 54 53 50 47 44 38 31 25 24 24 30 42 46 58 61 68 71 70 85 111 115 113 110 107 104 101 100 99
9 9 7 11 17 34 9 18 11 11 19 39 41 34 33 38 42 47 49 51 52 53 54 54 52 47 43 38 35 32 30 29 33 37 46 52 62 66 68 75 83 110 114 114 112 110 105 103 102
9 16 17 27 18 13 20 33 27 13 16 23 25 24 28 29 31 36 42 45 48 50 51 51 49 50 53 48 44 40 33 33 36 36 42 43 49 58 62 67 73 79 107 116 115 114 112 111 107
16 4 6 6 12 14 16 36 30 24 15 11 18 24 28 29 31 31 32 38 44 46 47 48 52 53 47 45 46 46 47 41 37 41 44 43 45 47 52 60 66 73 81 100 116 117 116 115 114
9 12 10 6 10 12 27 27 31 9 17 15 18 27 32 34 36 37 37 40 42 44 48 51 52 50 50 52 49 47 47 46 45 41 42 45 47 46 48 54 60 66 76 86 100 116 121 121 119
21 33 40 27 24 25 34 38 15 22 16 10 8 9 13 20 27 27 29 32 37 43 44 44 48 50 52 53 53 54 52 51 49 46 46 45 48 51 50 50 57 64 71 78 91 102 118 127 126
Wind_Direction_500mb
253 271 307 336 254 254 258 206 300 266 254 265 142 246 310 306 289 324 320 218 188 194 196 198 203 197 196 195 192 194 199 204 211 219 228 232 236 242 240 231 226 236 250 271 283 258 254 260 247
262 286 332 291 262 272 62 349 238 333 302 232 229 240 259 288 260 276 281 220 192 189 199 203 206 208 207 204 205 202 204 212 218 225 229 233 236 242 244 231 226 232 248 265 268 266 265 255 243
262 300 294 308 270 309 347 202 21 347 260 222 247 247 284 248 265 244 277 227 197 191 199 205 209 211 214 214 208 208 206 211 220 212 220 226 219 216 222 229 232 239 249 255 251 256 262 267 266
138 44 59 269 277 280 267 294 296 305 239 222 259 260 253 249 263 247 284 244 210 201 201 207 208 212 214 216 213 211 204 207 215 207 214 228 232 226 231 236 236 243 252 257 261 261 261 262 262
152 140 244 267 274 273 264 287 286 285 291 204 212 293 262 280 267 267 261 244 223 215 209 208 209 212 214 215 214 210 205 207 218 217 226 235 234 237 235 235 240 245 252 259 265 272 271 268 260
147 222 243 271 276 273 285 272 272 258 264 233 231 264 268 298 295 273 252 245 224 220 217 216 215 215 213 212 205 205 208 214 225 234 235 233 237 234 230 234 237 238 239 243 241 235 237 242 249
215 221 275 279 285 284 260 220 237 289 254 248 238 267 272 282 290 297 259 238 227 217 216 219 219 217 219 219 213 213 212 220 231 238 238 235 232 230 227 225 225 227 229 226 219 212 216 223 233
166 230 225 231 264 282 218 220 230 250 292 244 207 242 276 273 291 286 268 248 232 227 224 221 221 220 220 222 222 221 223 225 235 238 238 233 229 226 221 217 216 213 211 211 214 218 227 238 245
170 233 243 241 207 224 200 236 207 239 259 244 240 249 273 284 279 273 262 250 241 237 232 227 223 222 224 225 225 225 227 227 232 234 235 232 229 223 218 215 213 209 206 208 211 215 222 232 239
214 238 246 230 220 242 257 246 278 261 264 257 261 268 280 284 274 265 263 258 250 244 242 235 230 226 225 227 226 227 229 230 232 232 230 227 228 224 221 219 217 216 213 214 219 224 231 240 249
189 238 247 242 240 253 272 268 247 269 272 264 270 286 278 280 278 271 267 263 259 254 243 243 238 233 229 229 227 227 228 229 230 231 230 229 226 222 220 220 216 215 214 216 218 222 227 231 236
232 243 244 262 244 242 262 283 260 248 263 277 284 280 279 278 278 274 273 267 257 252 248 243 238 237 236 232 230 231 231 231 231 230 229 228 227 224 223 222 219 217 216 218 219 221 221 222 225
232 252 251 250 255 254 270 266 266 266 271 283 280 282 286 281 281 278 276 269 255 249 244 243 242 240 238 236 234 233 232 233 234 232 231 229 228 228 228 226 224 222 221 221 221 220 221 224 230
261 262 272 265 256 245 240 270 259 265 282 287 287 290 286 286 295 300 278 265 262 259 252 247 245 241 240 239 237 238 236 235 233 233 233 231 230 228 227 226 225 225 223 224 224 224 226 228 232
303 294 288 262 250 231 215 263 234 270 270 279 289 292 293 290 292 294 294 279 271 267 266 258 253 248 243 242 239 238 238 237 236 235 233 232 231 230 229 227 226 225 225 225 225 227 227 229 233
262 250 279 285 173 208 191 270 278 287 280 283 286 286 283 284 283 284 286 280 275 274 272 271 261 252 247 245 243 241 238 237 238 237 235 233 231 230 229 229 227 227 225 225 226 226 226 227 230
224 266 261 285 232 201 204 270 284 287 298 292 286 285 281 286 290 290 284 289 282 276 273 268 259 252 249 247 245 244 242 241 238 237 237 236 233 231 230 230 229 229 227 226 225 225 225 225 228
261 249 250 256 274 234 266 258 277 285 289 281 284 281 286 288 288 308 314 303 301 285 273 266 259 254 250 247 244 242 241 240 239 239 238 237 236 234 231 231 230 229 228 226 226 225 224 223 224
280 272 271 277 282 297 283 287 285 282 280 279 280 286 291 287 311 335 349 335 320 296 284 274 266 263 255 249 242 240 241 241 240 240 240 239 238 236 233 232 231 229 229 228 227 225 223 222 222
259 265 273 277 275 285 287 293 288 272 270 272 281 291 290 305 345 22 33 24 12 336 305 289 283 274 264 257 254 246 245 244 244 242 242 240 238 236 235 234 233 231 229 227 227 227 223 220 221
252 262 269 276 306 273 297 284 246 294 268 290 290 288 310 357 33 27 28 31 29 20 332 314 308 283 270 267 259 251 244 244 247 244 244 242 240 240 237 237 236 233 232 230 230 227 225 225 220
274 267 267 277 286 282 359 292 293 274 284 334 26 69 61 71 36 25 32 37 36 28 22 2 331 325 297 277 264 259 258 254 256 258 258 254 247 243 240 239 238 236 234 233 232 231 229 225 224
272 352 297 282 261 294 240 259 321 260 263 181 59 58 73 45 38 41 41 45 47 50 49 47 40 26 7 328 295 280 273 263 262 259 261 262 264 252 243 241 240 238 236 234 234 233 231 231 229
35 300 273 228 267 262 264 222 100 190 276 351 59 79 54 48 42 41 41 44 43 37 34 34 33 31 29 20 359 321 299 286 274 276 272 272 269 260 250 242 240 241 240 238 237 234 232 233 233
171 300 299 260 222 268 93 269 273 274 255 4 84 69 50 40 40 36 35 33 29 25 24 23 23 20 13 12 4 345 328 306 292 286 279 275 273 269 264 252 242 239 240 241 241 239 236 233 231
175 217 207 277 283 291 286 256 266 297 62 65 56 51 46 40 37 36 35 33 28 25 21 20 20 21 18 13 357 341 328 315 300 295 290 286 282 279 274 265 255 244 240 239 240 240 240 238 236
193 216 242 258 268 273 253 270 277 18 169 72 59 48 44 39 37 32 25 22 19 19 17 15 14 10 14 12 5 359 343 325 312 301 292 288 288 285 279 274 266 255 246 243 241 240 239 238 237
226 83 219 184 227 231 260 288 273 251 169 70 47 34 26 19 18 18 15 11 7 3 0 358 360 2 2 358 358 357 355 346 328 313 302 293 287 284 283 277 270 265 255 248 245 244 241 239 237
188 211 212 199 223 284 278 273 312 344 80 71 26 13 13 12 8 5 5 3 1 1 358 355 356 357 350 349 349 348 347 347 347 335 318 306 292 285 278 276 271 266 263 258 250 245 244 241 239
254 263 252 243 250 247 254 256 106 114 107 99 84 38 2 6 6 3 5 2 358 357 357 356 351 349 351 350 348 347 345 342 341 342 340 327 311 300 290 276 270 267 262 261 260 254 247 245 242
Wind_Speed_850mb
11 8 8 6 8 6 6 3 4 7 4 1 6 6 9 13 8 10 4 9 16 41 47 48 43 40 41 39 36 33 31 28 26 24 23 22 21 21 19 17 16 16 18 10 7 7 5 3 1
9 5 5 2 7 8 4 0 5 3 2 4 9 9 11 14 17 20 14 13 19 37 46 49 49 44 41 38 36 36 34 31 29 29 28 31 29 24 20 17 20 22 23 14 11 12 10 8 7
4 1 5 4 4 6 6 2 4 4 6 9 6 9 8 6 10 7 10 13 24 35 46 48 48 48 45 41 38 37 33 29 28 25 25 26 21 19 17 19 22 24 25 20 18 17 18 17 15
3 2 4 8 14 17 12 13 15 18 5 11 9 12 11 20 10 13 8 14 25 33 42 44 46 46 47 45 42 38 35 32 34 32 28 23 22 21 21 23 25 26 24 23 21 19 16 16 15
6 1 6 7 12 11 16 19 15 11 4 6 7 5 9 19 19 24 18 13 24 29 37 41 43 44 44 45 43 41 40 39 40 36 27 25 24 22 21 23 22 22 21 20 19 17 15 12 10
3 1 6 9 8 11 16 15 10 12 6 4 8 13 11 15 12 14 21 19 25 30 35 38 42 43 43 44 45 41 44 46 46 32 27 27 24 21 21 21 21 20 19 17 14 11 8 6 5
4 5 7 11 13 10 4 1 6 7 6 11 6 9 11 18 12 14 15 22 27 35 39 40 43 46 46 46 46 44 46 49 50 38 30 28 25 24 24 23 21 18 15 13 12 10 9 8 7
7 5 5 8 6 9 4 4 6 11 9 9 11 10 13 15 23 23 22 24 30 37 40 44 46 49 52 51 48 50 50 50 48 40 34 30 28 28 27 25 23 21 19 18 16 13 12 11 10
9 8 11 9 10 5 8 9 10 12 18 15 23 36 35 46 40 35 31 32 36 41 44 47 50 52 55 54 52 50 49 49 48 43 39 34 34 32 31 29 26 25 24 22 19 16 13 11 10
12 8 11 10 13 10 11 12 16 13 29 35 35 46 44 41 45 44 42 43 44 46 47 50 52 55 58 59 56 54 54 53 50 49 46 42 39 37 34 31 28 26 24 21 18 15 13 12 10
12 15 17 18 29 18 18 19 14 23 32 39 34 32 29 42 47 51 51 51 51 47 53 51 54 56 60 62 62 63 62 59 58 54 51 46 44 43 42 40 37 34 30 27 23 21 17 14 13
12 29 29 14 14 9 15 16 19 34 70 58 52 49 46 52 54 53 52 51 49 52 52 57 58 62 63 64 67 68 68 67 65 62 59 55 53 52 50 46 42 39 36 33 29 26 22 19 16
19 25 26 33 27 28 31 52 35 59 69 68 56 55 53 49 51 51 54 52 49 54 53 58 60 64 67 70 70 73 75 73 70 68 66 63 60 58 55 50 47 45 41 37 33 30 25 21 16
7 20 32 27 32 30 25 61 12 44 38 49 41 51 47 48 42 47 52 49 51 48 46 52 61 68 71 74 76 78 78 77 77 75 73 70 67 65 63 59 56 53 48 44 39 33 28 24 19
11 23 33 34 29 19 21 26 35 59 31 43 52 44 41 45 56 68 56 52 45 45 46 51 56 64 75 79 80 83 83 83 84 81 79 78 75 71 68 67 64 60 55 50 45 40 34 29 24
12 8 22 9 11 9 21 40 42 33 22 34 45 53 59 71 66 58 69 72 69 71 73 69 68 68 74 81 86 91 91 88 89 88 85 84 82 79 76 74 70 67 62 57 53 47 41 36 30
16 27 34 31 17 7 25 25 30 19 25 63 66 70 73 67 71 52 49 55 55 61 64 67 69 75 76 80 89 95 97 97 96 94 93 91 88 86 83 79 76 73 70 66 60 53 48 41 35
28 19 19 22 10 16 24 37 40 65 61 72 76 80 64 53 57 44 40 37 36 39 43 48 52 62 70 80 90 99 102 105 104 104 100 95 94 91 88 84 83 81 79 73 66 61 56 48 43
31 33 43 41 36 26 45 42 37 53 67 72 77 62 46 38 34 32 35 31 23 21 30 36 44 46 58 70 85 96 106 107 108 109 105 102 99 98 94 91 90 88 86 80 73 69 63 57 51
35 43 44 42 34 14 35 49 49 46 63 67 63 46 39 34 29 31 44 40 35 27 24 29 34 42 51 58 68 79 84 95 99 105 110 108 107 103 100 97 96 94 91 86 81 79 73 68 62
37 34 39 43 28 26 26 29 7 18 29 34 30 30 22 20 32 42 48 50 50 42 24 29 31 32 37 45 53 61 76 76 78 91 103 107 108 109 103 101 101 98 96 95 91 87 82 77 69
43 30 34 30 13 19 11 20 23 28 30 9 27 25 25 36 43 44 49 57 58 57 45 30 24 25 30 32 42 53 58 69 76 81 84 93 103 109 106 105 105 102 100 99 95 91 88 84 79
18 9 11 8 14 12 12 13 8 5 23 10 18 24 37 40 38 44 49 54 59 60 58 55 47 36 24 19 26 37 45 50 48 61 74 77 79 92 107 108 109 109 106 104 100 96 92 89 85
1 10 12 4 9 16 19 17 5 5 4 4 23 37 34 38 41 46 49 59 55 49 51 52 49 44 38 34 27 26 34 41 52 59 67 71 70 69 87 109 112 112 110 108 104 99 96 93 91
5 8 10 11 10 16 8 7 14 25 8 15 23 26 42 47 47 57 66 61 58 54 53 50 47 44 38 31 25 24 24 30 42 46 58 61 68 71 70 85 111 115 113 110 107 104 101 100 99
9 9 7 11 17 34 9 18 11 11 19 39 41 34 33 38 42 47 49 51 52 53 54 54 52 47 43 38 35 32 30 29 33 37 46 52 62 66 68 75 83 110 114 114 112 110 105 103 102
9 16 17 27 18 13 20 33 27 13 16 23 25 24 28 29 31 36 42 45 48 50 51 51 49 50 53 48 44 40 33 33 36 36 42 43 49 58 62 67 73 79 107 116 115 114 112 111 107
16 4 6 6 12 14 16 36 30 24 15 11 18 24 28 29 31 31 32 38 44 46 47 48 52 53 47 45 46 46 47 41 37 41 44 43 45 47 52 60 66 73 81 100 116 117 116 115 114
9 12 10 6 10 12 27 27 31 9 17 15 18 27 32 34 36 37 37 40 42 44 48 51 52 50 50 52 49 47 47 46 45 41 42 45 47 46 48 54 60 66 76 86 100 116 121 121 119
21 33 40 27 24 25 34 38 15 22 16 10 8 9 13 20 27 27 29 32 37 43 44 44 48 50 52 53 53 54 52 51 49 46 46 45 48 51 50 50 57 64 71 78 91 102 118 127 126
Wind_Direction_850mb
253 271 307 336 254 254 258 206 300 266 254 265 142 246 310 306 289 324 320 218 188 194 196 198 203 197 196 195 192 194 199 204 211 219 228 232 236 242 240 231 226 236 250 271 283 258 254 260 247
262 286 332 291 262 272 62 349 238 333 302 232 229 240 259 288 260 276 281 220 192 189 199 203 206 208 207 204 205 202 204 212 218 225 229 233 236 242 244 231 226 232 248 265 268 266 265 255 243
262 300 294 308 270 309 347 202 21 347 260 222 247 247 284 248 265 244 277 227 197 191 199 205 209 211 214 214 208 208 206 211 220 212 220 226 219 216 222 229 232 239 249 255 251 256 262 267 266
138 44 59 269 277 280 267 294 296 305 239 222 259 260 253 249 263 247 284 244 210 201 201 207 208 212 214 216 213 211 204 207 215 207 214 228 232 226 231 236 236 243 252 257 261 261 261 262 262
152 140 244 267 274 273 264 287 286 285 291 204 212 293 262 280 267 267 261 244 223 215 209 208 209 212 214 215 214 210 205 207 218 217 226 235 234 237 235 235 240 245 252 259 265 272 271 268 260
147 222 243 271 276 273 285 272 272 258 264 233 231 264 268 298 295 273 252 245 224 220 217 216 215 215 213 212 205 205 208 214 225 234 235 233 237 234 230 234 237 238 239 243 241 235 237 242 249
215 221 275 279 285 284 260 220 237 289 254 248 238 267 272 282 290 297 259 238 227 217 216 219 219 217 219 219 213 213 212 220 231 238 238 235 232 230 227 225 225 227 229 226 219 212 216 223 233
166 230 225 231 264 282 218 220 230 250 292 244 207 242 276 273 291 286 268 248 232 227 224 221 221 220 220 222 222 221 223 225 235 238 238 233 229 226 221 217 216 213 211 211 214 218 227 238 245
170 233 243 241 207 224 200 236 207 239 259 244 240 249 273 284 279 273 262 250 241 237 232 227 223 222 224 225 225 225 227 227 232 234 235 232 229 223 218 215 213 209 206 208 211 215 222 232 239
214 238 246 230 220 242 257 246 278 261 264 257 261 268 280 284 274 265 263 258 250 244 242 235 230 226 225 227 226 227 229 230 232 232 230 227 228 224 221 219 217 216 213 214 219 224 231 240 249
189 238 247 242 240 253 272 268 247 269 272 264 270 286 278 280 278 271 267 263 259 254 243 243 238 233 229 229 227 227 228 229 230 231 230 229 226 222 220 220 216 215 214 216 218 222 227 231 236
232 243 244 262 244 242 262 283 260 248 263 277 284 280 279 278 278 274 273 267 257 252 248 243 238 237 236 232 230 231 231 231 231 230 229 228 227 224 223 222 219 217 216 218 219 221 221 222 225
232 252 251 250 255 254 270 266 266 266 271 283 280 282 286 281 281 278 276 269 255 249 244 243 242 240 238 236 234 233 232 233 234 232 231 229 228 228 228 226 224 222 221 221 221 220 221 224 230
261 262 272 265 256 245 240 270 259 265 282 287 287 290 286 286 295 300 278 265 262 259 252 247 245 241 240 239 237 238 236 235 233 233 233 231 230 228 227 226 225 225 223 224 224 224 226 228 232
303 294 288 262 250 231 215 263 234 270 270 279 289 292 293 290 292 294 294 279 271 267 266 258 253 248 243 242 239 238 238 237 236 235 233 232 231 230 229 227 226 225 225 225 225 227 227 229 233
262 250 279 285 173 208 191 270 278 287 280 283 286 286 283 284 283 284 286 280 275 274 272 271 261 252 247 245 243 241 238 237 238 237 235 233 231 230 229 229 227 227 225 225 226 226 226 227 230
224 266 261 285 232 201 204 270 284 287 298 292 286 285 281 286 290 290 284 289 282 276 273 268 259 252 249 247 245 244 242 241 238 237 237 236 233 231 230 230 229 229 227 226 225 225 225 225 228
261 249 250 256 274 234 266 258 277 285 289 281 284 281 286 288 288 308 314 303 301 285 273 266 259 254 250 247 244 242 241 240 239 239 238 237 236 234 231 231 230 229 228 226 226 225 224 223 224
280 272 271 277 282 297 283 287 285 282 280 279 280 286 291 287 311 335 349 335 320 296 284 274 266 263 255 249 242 240 241 241 240 240 240 239 238 236 233 232 231 229 229 228 227 225 223 222 222
259 265 273 277 275 285 287 293 288 272 270 272 281 291 290 305 345 22 33 24 12 336 305 289 283 274 264 257 254 246 245 244 244 242 242 240 238 236 235 234 233 231 229 227 227 227 223 220 221
252 262 269 276 306 273 297 284 246 294 268 290 290 288 310 357 33 27 28 31 29 20 332 314 308 283 270 267 259 251 244 244 247 244 244 242 240 240 237 237 236 233 232 230 230 227 225 225 220
274 267 267 277 286 282 359 292 293 274 284 334 26 69 61 71 36 25 32 37 36 28 22 2 331 325 297 277 264 259 258 254 256 258 258 254 247 243 240 239 238 236 234 233 232 231 229 225 224
272 352 297 282 261 294 240 259 321 260 263 181 59 58 73 45 38 41 41 45 47 50 49 47 40 26 7 328 295 280 273 263 262 259 261 262 264 252 243 241 240 238 236 234 234 233 231 231 229
35 300 273 228 267 262 264 222 100 190 276 351 59 79 54 48 42 41 41 44 43 37 34 34 33 31 29 20 359 321 299 286 274 276 272 272 269 260 250 242 240 241 240 238 237 234 232 233 233
171 300 299 260 222 268 93 269 273 274 255 4 84 69 50 40 40 36 35 33 29 25 24 23 23 20 13 12 4 345 328 306 292 286 279 275 273 269 264 252 242 239 240 241 241 239 236 233 231
175 217 207 277 283 291 286 256 266 297 62 65 56 51 46 40 37 36 35 33 28 25 21 20 20 21 18 13 357 341 328 315 300 295 290 286 282 279 274 265 255 244 240 239 240 240 240 238 236
193 216 242 258 268 273 253 270 277 18 169 72 59 48 44 39 37 32 25 22 19 19 17 15 14 10 14 12 5 359 343 325 312 301 292 288 288 285 279 274 266 255 246 243 241 240 239 238 237
226 83 219 184 227 231 260 288 273 251 169 70 47 34 26 19 18 18 15 11 7 3 0 358 360 2 2 358 358 357 355 346 328 313 302 293 287 284 283 277 270 265 255 248 245 244 241 239 237
188 211 212 199 223 284 278 273 312 344 80 71 26 13 13 12 8 5 5 3 1 1 358 355 356 357 350 349 349 348 347 347 347 335 318 306 292 285 278 276 271 266 263 258 250 245 244 241 239
254 263 252 243 250 247 254 256 106 114 107 99 84 38 2 6 6 3 5 2 358 357 357 356 351 349 351 350 348 347 345 342 341 342 340 327 311 300 290 276 270 267 262 261 260 254 247 245 242